This demonstration page uses our WeatherBlox Daily Observations layout. Learn more.

36.17497, -115.13722

Hourly Observations for February 25, 2018

Temp ( °F °C ) Dew Point ( °F °C ) Humidity (%) Winds ( mph kmh ) Pressure ( in mb ) Visibility ( mi km ) Precip ( " mm )
12:53 am 00:53 Clear 44 6.7 11 -11.7 26 26 NW 15 24 30.22 1023 10 16.0934 0 0
1:53 am 01:53 Clear 45 7.2 13 -10.6 27 27 NNW 18 30 30.24 1024 10 16.0934 0 0
2:53 am 02:53 Clear 42 5.6 14 -10 32 32 N 13 20 30.26 1025 10 16.0934 0 0
3:53 am 03:53 Clear 40 4.4 15 -9.4 36 36 N 13 20 30.27 1025 10 16.0934 0 0
4:53 am 04:53 Clear 40 4.4 15 -9.4 36 36 N 12 19 30.31 1026 10 16.0934 0 0
5:53 am 05:53 Clear 41 5 16 -8.9 36 36 N 16 26 30.32 1027 10 16.0934 0 0
6:53 am 06:53 Sunny 40 4.4 15 -9.4 36 36 VRB 3 6 30.35 1028 10 16.0934 0 0
7:53 am 07:53 Sunny 42 5.6 11 -11.7 28 28 NNW 9 15 30.37 1028 10 16.0934 0 0
8:53 am 08:53 Sunny 46 7.8 9 -12.8 22 22 N 9 15 30.36 1028 10 16.0934 0 0
9:53 am 09:53 Sunny 48 8.9 7 -13.9 19 19 NNE 6 9 30.36 1028 10 16.0934 0 0
10:53 am 10:53 Sunny 48 8.9 7 -13.9 19 19 VRB 6 9 30.35 1028 10 16.0934 0 0
11:53 am 11:53 Sunny 50 10 6 -14.4 17 17 Calm 30.33 1027 10 16.0934 0 0
12:53 pm 12:53 Sunny 51 10.6 5 -15 15 15 SE 8 13 30.29 1026 10 16.0934 0 0
1:53 pm 13:53 Sunny 52 11.1 4 -15.6 14 14 SSE 9 15 30.27 1025 10 16.0934 0 0
2:53 pm 14:53 Sunny 53 11.7 3 -16.1 13 13 SE 9 15 30.25 1025 10 16.0934 0 0
3:53 pm 15:53 Sunny 54 12.2 4 -15.6 13 13 Calm 30.23 1024 10 16.0934 0 0
4:53 pm 16:53 Sunny 52 11.1 4 -15.6 14 14 VRB 5 7 30.22 1023 10 16.0934 0 0
5:53 pm 17:53 Clear 49 9.4 2 -16.7 14 14 E 6 9 30.22 1023 10 16.0934 0 0
6:53 pm 18:53 Clear 47 8.3 2 -16.7 15 15 E 5 7 30.22 1023 10 16.0934 0 0
7:53 pm 19:53 Clear 48 8.9 2 -16.7 15 15 Calm 30.22 1023 10 16.0934 0 0
8:53 pm 20:53 Clear 43 6.1 6 -14.4 22 22 W 3 6 30.22 1024 10 16.0934 0 0
9:53 pm 21:53 Clear 41 5 10 -12.2 28 28 Calm 30.22 1023 10 16.0934 0 0
10:53 pm 22:53 Clear 39 3.9 12 -11.1 33 33 N 5 7 30.2 1023 10 16.0934 0 0
11:53 pm 23:53 Clear 39 3.9 11 -11.7 31 31 WNW 5 7 30.18 1022 10 16.0934 0 0

Powered by AerisWeather